Location: Newark
(45.5167°N, 11.1667°E)
Time: 02:26:09
(UTC+00:00)

Explorer 7 - Pass Details

Date: 23 December 2019
Orbit: 485 x 679 km, 50.3° (Epoch: 26 January)

Event Time Altitude Azimuth Distance (km) Brightness Sun altitude
Rises 10:51:42 0° 240° (WSW) 2,824 10.8 20.9°
Reaches altitude 10° 10:53:55 10° 239° (WSW) 1,956 10.1 20.9°
Maximum altitude 10:58:26 82° 154° (SSE) 645 7.7 21.0°
Drops below altitude 10° 11:03:13 10° 66° (ENE) 2,072 9.6 21.0°
Sets 11:05:38 0° 65° (ENE) 3,006 10.4 21.0°
